Weather in Chamlyk-Nikol'skoye

Russia / Lipetsk Oblast     52°02′37″N   40°34′39″E
temp.,
°C
wind,
m/s
gust,
m/s
humid.,
%
clouds,
%
prec.,
mm/h
press.,
hPa
HPBL,
m
16 april, fri
fri1600:00+11se22792 0.0 101511
03:00+9sse227889 0.0 101610
06:00+9ssw227684 0.0 101616
09:00+13sw2364100 0.0 1017400
12:00+15ssw346153 0.0 1017821
15:00+17sse34505 0.1 10171401
18:00+16s234799 0.0 101773
21:00+12wsw34605 0.0 101747
17 april, sat
sat1700:00+11ssw2362100 0.0 101845
03:00+10sse1167100 0.0 101810
06:00+9sse2376100 0.2 1018103
09:00+9se51191100 2.8 1018940
12:00+8sw3584100 3.3 1019396
15:00+10se3373100 5.4 1019675
18:00+11se34735 0.3 1019484
21:00+7ese378898 0.3 1020131
18 april, sun
sun1800:00+7ssw238577 0.0 102046
03:00+6wsw238310 0.0 102048
06:00+6sw228276 0.0 102048
09:00+10sw336247 0.0 1020759
12:00+11sw3451100 0.1 10201716
15:00+12wsw3452100 0.1 10201457
18:00+11wnw115780 0.0 102137
21:00+8ese11635 0.0 102110
19 april, mon
mon1900:00+7ese226897 0.0 102110
03:00+6e2271100 0.0 102113
06:00+6e337495 0.0 102141
09:00+10ene3463100 0.0 1021368
12:00+14e3450100 0.0 10191190
15:00+16ese674299 0.0 10182055
18:00+14se4858100 0.0 1018301
21:00+11ese81476100 0.1 1018772
20 april, tue
tue2000:00+9e91686100 0.4 1016581
03:00+8e91886100 0.8 1015670
06:00+8ese101986100 0.1 1012769
09:00+8ese112191100 4.8 1010973
12:00+8ese132488100 5.9 10071184
15:00+10se132490100 8.9 10061400
18:00+12se122090100 3.0 10051059
21:00+12s81493100 8.1 1004863